User: anonymous   Login
Location: Mentone
(34.5413°N, 85.5351°W)
Time: 05:08:06
(UTC-05:00)
Language:

NOSS 2-2 (E) - Orbit

View from above orbital plane
View from above orbital plane
View from above satellite
View from above satellite

Ground track
Ground track

The orbit data is extracted from the following two-line orbital elements,

1 21809U 91076E   15182.03720479 0.00000200  00000-0  87116-4 0    04
2 21809  63.3680 148.8757 0685000  15.1753 344.8247 13.41142267    02
Epoch (UTC): 01 July 2015 00:53:34
Eccentricity: 0.0685000
inclination: 63.3680°
perigee height: 592 km
apogee height: 1617 km
right ascension of ascending node: 148.8757°
argument of perigee: 15.1753°
revolutions per day: 13.41142267
mean anomaly at epoch: 344.8247°
orbit number at epoch: 0

The dashed part of the orbit path shows where the satellite is in the earth's shadow,  

DLR